Regional Weather Roundup
Issued by NWS Portland, ME

Current Version | Previous Version | Text Only | Print | Product List | Glossary Off
Versions: 1 2 3 4 5 6 7 8 9 10 11 12 13 14 15 16 17 18 19 20 21 22 23 24 25 26 27 28 29 30 31 32 33 34 35 36 37 38 39 40 41 42 43 44 45 46 47 48 49 50
000 ASUS41 KGYX 181110 RWRGYX WEATHER ROUNDUP FOR MAINE AND NEW HAMPSHIRE NATIONAL WEATHER SERVICE GRAY ME 600 AM EST FRI JAN 18 2019 MEZ002-005-006-010-012-015-018-020-021-024-026-027-029-181200- MAINE CITY SKY/WX TMP DP RH WIND PRES REMARKS PORTLAND FAIR 17 7 64 VRB5 30.19F SANFORD FAIR 10 8 92 CALM 30.17F BAR HARBOR CLOUDY 23 15 71 SE6 30.23F WISCASSET FAIR 19 16 88 CALM 30.20F ROCKLAND FLURRIES 28 20 71 SW5 30.20F FRYEBURG CLOUDY 6 1 80 CALM 30.17F LEWISTONAUBURN MOCLDY 10 3 73 N6 30.19F AUGUSTA MOCLDY 8 5 87 N7 30.19S WATERVILLE FLURRIES 8 1 73 MISG 30.17S BANGOR FLURRIES 14 9 80 N5 30.21F GREENVILLE N/A 5 -6 60 SE8 30.05F MILLINOCKET CLOUDY 2 -5 72 CALM 30.21F HOULTON MOCLDY -8 -13 78 W3 30.19F PRESQUE ISLE CLOUDY -1 -9 68 SE5 30.19F FRENCHVILLE CLOUDY -2 -11 65 SE8 30.10F CARIBOU MOCLDY -2 -11 65 SE3 30.16F $$ NHZ002-005-008-009-011-012-014-181200- NEW HAMPSHIRE CITY SKY/WX TMP DP RH WIND PRES REMARKS PORTSMOUTH MOCLDY 16 6 65 N3 30.16F ROCHESTER FAIR 13 7 77 NW5 30.16F NASHUA FAIR 18 12 77 W3 30.17F MANCHESTER MOCLDY 20 10 65 CALM 30.14F CONCORD CLOUDY 17 10 74 NW3 30.15F LACONIA CLOUDY 14 6 70 CALM 30.15F PLYMOUTH FLURRIES 13 5 73 CALM 30.16S BERLIN CLOUDY 3 -2 79 CALM 30.06F WHITEFIELD CLOUDY 7 2 80 CALM 30.06F JAFFREY FAIR 17 12 80 CALM 30.08F KEENE CLOUDY 20 12 71 CALM 30.13S LEBANON CLOUDY 16 7 67 CALM 30.11S MT WASHINGTON SNOWSHWR -2 -2 100 SW40G48 N/A VSB 1/16WCI -32 $$ VTZ005-007-008-181200- VERMONT CITY SKY/WX TMP DP RH WIND PRES REMARKS ST JOHNSBURY N/A 8 3 80 MISG 30.08F MONTPELIER CLOUDY 16 10 77 SW6 30.07F BURLINGTON CLOUDY 22 11 62 S15G21 30.05S WCI 9 $$ MAZ007-012-024-CTZ003-RIZ002-NYZ038-NYZ072-181200- SOUTHERN NEW ENGLAND AND NY CITY SKY/WX TMP DP RH WIND PRES REMARKS BOSTON CLOUDY 29 19 66 SE6 30.17F WORCESTER FAIR 19 14 81 SE5 30.09F NANTUCKET LGT SNOW 32 31 96 E10 30.15F FOG PROVIDENCE CLOUDY 25 17 72 N5 30.16F HARTFORD CLOUDY 23 11 60 CALM 30.13F ALBANY CLOUDY 24 18 77 S9 30.10S NEW YORK CITY LGT SNOW 31 28 89 E8 30.11F FOG $$ ANZ081-ANZ082-ANZ150-NHZ014-MEZ023>029-181200- COASTAL MARINE OBSERVATIONS STATION/POSITION TIME TEMP WIND PRES WAVE AIR SEA DIR/SP/G HT/PER (UTC) (F) (DEG/KT/KT) (MB) (FT/S) MOUNT DESERT ROC 1100 27 140/ 16/ 20 1023.8F MATINICUS ROCK 1000 29 160/ 13/ 15 1022.7F ISLE OF SHOALS 1000 30 210/ 9/ 11 1021.8F JEFFREYS LEDGE 1038 43 N/A 2/11 CASHES LEDGE BUO 1050 31 40 1022.1F 2/ 3 $$ .............KEY.............. WCI - WIND CHILL TC - TEMPERATURE IN CELSIUS VSB - VISIBILITY IN MILES HX - HEAT INDEX FAIR- INDICATES FEW OR NO CLOUDS BELOW 12,000 FT, WITH NO SIGNIFICANT WEATHER AND/OR OBSTRUCTIONS TO VISIBILITY.

USA.gov is the U.S. government's official web portal to all federal, state and local government web resources and services.